This is the latest recevied weather packets stored in our database for station/object KD4UFD. If no packets are shown the sender has not sent any weather packets the latest 1 day(s).
| Time | Temp. | Humidity | Pressure | Rain* | Wind** | Luminosity | Snow |
|---|---|---|---|---|---|---|---|
| 1778064795 | 20° C | 82% | 1010.3 hPa | 1.27 mm | - | 0 W/m² | - |
| 1778063888 | 20.56° C | 77% | 1010.2 hPa | 0 mm | - | 0 W/m² | - |
| 1778062071 | 21.11° C | 75% | 1009.6 hPa | 0 mm | - | 0 W/m² | - |
| 1778061164 | 21.11° C | 74% | 1009.3 hPa | 0 mm | - | 0 W/m² | - |
| 1778059954 | 21.11° C | 71% | 1009.4 hPa | 0 mm | - | 0 W/m² | - |
| 1778059652 | 21.11° C | 70% | 1009.5 hPa | 0 mm | - | 0 W/m² | - |
| 1778059350 | 21.11° C | 68% | 1009.4 hPa | 0 mm | - | 0 W/m² | - |
| 1778058744 | 21.11° C | 67% | 1009.3 hPa | 0 mm | - | 0 W/m² | - |
| 1778056017 | 21.11° C | 65% | 1009.3 hPa | 0 mm | - | 0 W/m² | - |
| 1778055717 | 21.11° C | 64% | 1009.2 hPa | 0 mm | - | 0 W/m² | - |
| 1778055415 | 20.56° C | 65% | 1008.8 hPa | 0 mm | - | 0 W/m² | - |
| 1778055112 | 20.56° C | 64% | 1008.9 hPa | 0 mm | - | 0 W/m² | - |
| 1778054810 | 20.56° C | 64% | 1008.9 hPa | 0 mm | - | 0 W/m² | - |
| 1778053901 | 21.11° C | 64% | 1009.2 hPa | 0 mm | - | 0 W/m² | - |
| 1778053599 | 21.11° C | 64% | 1009.3 hPa | 0 mm | - | 0 W/m² | - |
| 1778053296 | 21.11° C | 63% | 1009.2 hPa | 0 mm | - | 0 W/m² | - |
| 1778052387 | 21.11° C | 62% | 1009.3 hPa | 0 mm | - | 0 W/m² | - |
| 1778052085 | 21.11° C | 63% | 1009.3 hPa | 0 mm | - | 0 W/m² | - |
| 1778051783 | 21.11° C | 63% | 1009.3 hPa | 0 mm | - | 0 W/m² | - |
| 1778051480 | 21.11° C | 62% | 1009.3 hPa | 0 mm | - | 0 W/m² | - |
| 1778050874 | 21.11° C | 62% | 1009.3 hPa | 0 mm | - | 0 W/m² | - |
| 1778049359 | 20.56° C | 62% | 1009.3 hPa | 0 mm | - | 0 W/m² | - |
| 1778048754 | 20° C | 63% | 1009.5 hPa | 0 mm | - | 0 W/m² | - |
| 1778048451 | 19.44° C | 66% | 1009.6 hPa | 0 mm | - | 0 W/m² | - |
| 1778048147 | 18.89° C | 67% | 1009.9 hPa | 0 mm | - | 0 W/m² | - |
* Rain latest hour (hover to see other rain measurements)
** Current wind speed in m/s (hover to see current wind gust speed)